When you browse on this site, cookies collect data to enhance your experience and personalize the content and advertising you see.
Visit our Privacy Policy to learn more. By continuing to use the site, you agree to this use of cookies and data.

Meteo pe oră la Dzierzanowo

Astăzi, 25 Septembrie, Vineri

Timp Temperatura Precipitaţii Vânt Presiune Umiditate
00:00 +17°C° 0 mm 2 m/s 743 mmHg 80%
01:00 +16°C° 0 mm 2 m/s 743 mmHg 81%
02:00 +16°C° 0 mm 2 m/s 742 mmHg 82%
03:00 +16°C° 0 mm 3 m/s 742 mmHg 84%
04:00 +16°C° 0 mm 3 m/s 742 mmHg 85%
05:00 +16°C° 0 mm 3 m/s 741 mmHg 84%
06:00 +16°C° 0 mm 3 m/s 741 mmHg 82%
07:00 +17°C° 0 mm 4 m/s 740 mmHg 81%
08:00 +18°C° 0 mm 4 m/s 740 mmHg 74%
09:00 +20°C° 0 mm 5 m/s 740 mmHg 67%
10:00 +22°C° 0 mm 6 m/s 739 mmHg 61%
11:00 +23°C° 0 mm 6 m/s 739 mmHg 57%
12:00 +24°C° 0 mm 6 m/s 738 mmHg 53%
13:00 +24°C° 0 mm 7 m/s 737 mmHg 49%
14:00 +24°C° 0 mm 6 m/s 737 mmHg 51%
15:00 +24°C° 0 mm 6 m/s 737 mmHg 52%
16:00 +25°C° 0 mm 5 m/s 736 mmHg 54%
17:00 +22°C° 0.4 mm 5 m/s 736 mmHg 62%
18:00 +20°C° 0.4 mm 4 m/s 736 mmHg 71%
19:00 +18°C° 0.4 mm 3 m/s 736 mmHg 80%
20:00 +18°C° 0.1 mm 3 m/s 737 mmHg 81%
21:00 +18°C° 0.1 mm 2 m/s 737 mmHg 82%
22:00 +18°C° 0.1 mm 2 m/s 737 mmHg 83%
23:00 +17°C° 0.1 mm 2 m/s 736 mmHg 84%

Mâine, 26 Septembrie, Sâmbătă

Timp Temperatura Precipitaţii Vânt Presiune Umiditate
00:00 +17°C° 0.1 mm 2 m/s 736 mmHg 85%
01:00 +17°C° 0.1 mm 3 m/s 736 mmHg 86%
02:00 +17°C° 0 mm 3 m/s 735 mmHg 86%
03:00 +17°C° 0 mm 4 m/s 735 mmHg 86%
04:00 +16°C° 0 mm 5 m/s 735 mmHg 86%
05:00 +16°C° 0 mm 5 m/s 734 mmHg 84%
06:00 +17°C° 0 mm 6 m/s 734 mmHg 81%
07:00 +17°C° 0 mm 6 m/s 733 mmHg 79%
08:00 +19°C° 0 mm 6 m/s 734 mmHg 73%
09:00 +20°C° 0 mm 7 m/s 734 mmHg 67%
10:00 +21°C° 0 mm 7 m/s 734 mmHg 61%
11:00 +21°C° 0.1 mm 6 m/s 734 mmHg 64%
12:00 +20°C° 0.1 mm 6 m/s 734 mmHg 67%
13:00 +20°C° 0.1 mm 5 m/s 735 mmHg 70%
14:00 +19°C° 1.3 mm 4 m/s 735 mmHg 77%
15:00 +18°C° 1.3 mm 4 m/s 735 mmHg 84%
16:00 +16°C° 1.3 mm 3 m/s 736 mmHg 91%
17:00 +16°C° 0.8 mm 3 m/s 736 mmHg 91%
18:00 +14°C° 0.8 mm 3 m/s 736 mmHg 90%
19:00 +14°C° 0.8 mm 2 m/s 736 mmHg 90%
20:00 +14°C° 0.6 mm 2 m/s 737 mmHg 90%
21:00 +14°C° 0.6 mm 2 m/s 737 mmHg 90%
22:00 +14°C° 0.6 mm 2 m/s 737 mmHg 90%
23:00 +12°C° 2.6 mm 3 m/s 737 mmHg 91%

Poimâine, 27 Septembrie, Duminică

Timp Temperatura Precipitaţii Vânt Presiune Umiditate
00:00 +12°C° 2.6 mm 5 m/s 737 mmHg 91%
01:00 +10°C° 2.6 mm 6 m/s 736 mmHg 92%
02:00 +10°C° 2.5 mm 6 m/s 736 mmHg 93%
03:00 +9°C° 2.5 mm 6 m/s 736 mmHg 93%
04:00 +9°C° 2.5 mm 6 m/s 736 mmHg 94%
05:00 +9°C° 1.3 mm 6 m/s 736 mmHg 93%
06:00 +9°C° 1.3 mm 6 m/s 736 mmHg 93%
07:00 +9°C° 1.3 mm 6 m/s 736 mmHg 93%
08:00 +9°C° 2.4 mm 7 m/s 736 mmHg 93%
09:00 +8°C° 2.4 mm 7 m/s 737 mmHg 93%
10:00 +8°C° 2.4 mm 7 m/s 737 mmHg 93%
11:00 +8°C° 1.5 mm 7 m/s 737 mmHg 92%
12:00 +8°C° 1.5 mm 6 m/s 737 mmHg 90%
13:00 +8°C° 1.5 mm 6 m/s 738 mmHg 89%
14:00 +8°C° 0.4 mm 6 m/s 738 mmHg 89%
15:00 +8°C° 0.4 mm 5 m/s 739 mmHg 89%
16:00 +8°C° 0.4 mm 4 m/s 739 mmHg 89%
17:00 +8°C° 0.5 mm 4 m/s 740 mmHg 89%
18:00 +9°C° 0.5 mm 3 m/s 741 mmHg 89%
19:00 +9°C° 0.5 mm 3 m/s 742 mmHg 89%
20:00 +9°C° 0 mm 3 m/s 742 mmHg 87%
21:00 +9°C° 0 mm 3 m/s 743 mmHg 86%
22:00 +9°C° 0 mm 3 m/s 744 mmHg 85%
23:00 +9°C° 0 mm 3 m/s 744 mmHg 85%

28 Septembrie, Luni

Timp Temperatura Precipitaţii Vânt Presiune Umiditate
00:00 +9°C° 0 mm 3 m/s 744 mmHg 85%
01:00 +8°C° 0 mm 3 m/s 745 mmHg 86%
02:00 +8°C° 0 mm 3 m/s 745 mmHg 86%
03:00 +8°C° 0 mm 3 m/s 745 mmHg 86%
04:00 +7°C° 0 mm 3 m/s 746 mmHg 86%
05:00 +8°C° 0 mm 3 m/s 746 mmHg 84%
06:00 +8°C° 0 mm 3 m/s 746 mmHg 83%
07:00 +9°C° 0 mm 3 m/s 746 mmHg 81%
08:00 +11°C° 0 mm 3 m/s 746 mmHg 74%
09:00 +13°C° 0 mm 3 m/s 747 mmHg 68%
10:00 +16°C° 0 mm 3 m/s 747 mmHg 61%
11:00 +16°C° 0 mm 3 m/s 747 mmHg 57%
12:00 +17°C° 0 mm 3 m/s 747 mmHg 53%
13:00 +18°C° 0 mm 3 m/s 747 mmHg 50%
14:00 +17°C° 0 mm 3 m/s 746 mmHg 53%
15:00 +17°C° 0 mm 3 m/s 746 mmHg 56%
16:00 +16°C° 0 mm 2 m/s 746 mmHg 60%
17:00 +15°C° 0 mm 2 m/s 746 mmHg 63%
18:00 +13°C° 0 mm 3 m/s 746 mmHg 66%
19:00 +11°C° 0 mm 3 m/s 746 mmHg 70%
20:00 +11°C° 0 mm 3 m/s 746 mmHg 74%
21:00 +11°C° 0 mm 3 m/s 746 mmHg 78%
22:00 +10°C° 0 mm 3 m/s 746 mmHg 83%
23:00 +10°C° 0.1 mm 2 m/s 746 mmHg 85%

29 Septembrie, Marţi

Timp Temperatura Precipitaţii Vânt Presiune Umiditate
00:00 +10°C° 0.1 mm 2 m/s 745 mmHg 88%
01:00 +10°C° 0.1 mm 2 m/s 745 mmHg 90%
02:00 +11°C° 0 mm 1 m/s 745 mmHg 89%
03:00 +10°C° 0 mm 1 m/s 745 mmHg 89%
04:00 +10°C° 0 mm 1 m/s 745 mmHg 88%
05:00 +11°C° 0 mm 1 m/s 745 mmHg 88%
06:00 +11°C° 0 mm 1 m/s 745 mmHg 88%
07:00 +11°C° 0 mm 1 m/s 746 mmHg 89%
08:00 +12°C° 0 mm 1 m/s 746 mmHg 84%
09:00 +13°C° 0 mm 1 m/s 746 mmHg 80%
10:00 +14°C° 0 mm 1 m/s 746 mmHg 76%
11:00 +15°C° 0.2 mm 2 m/s 747 mmHg 73%
12:00 +16°C° 0.2 mm 2 m/s 747 mmHg 70%
13:00 +16°C° 0.2 mm 3 m/s 747 mmHg 67%
14:00 +16°C° 0.2 mm 3 m/s 747 mmHg 69%
15:00 +16°C° 0.2 mm 3 m/s 748 mmHg 71%
16:00 +14°C° 0.2 mm 4 m/s 748 mmHg 73%
17:00 +13°C° 0 mm 3 m/s 748 mmHg 77%
18:00 +12°C° 0 mm 3 m/s 749 mmHg 80%
19:00 +12°C° 0 mm 2 m/s 749 mmHg 83%
20:00 +12°C° 0 mm 2 m/s 749 mmHg 86%
21:00 +10°C° 0 mm 2 m/s 749 mmHg 88%
22:00 +10°C° 0 mm 2 m/s 750 mmHg 91%
23:00 +10°C° 0 mm 2 m/s 750 mmHg 92%

30 Septembrie, Miercuri

Timp Temperatura Precipitaţii Vânt Presiune Umiditate
00:00 +10°C° 0 mm 2 m/s 750 mmHg 93%
01:00 +9°C° 0 mm 2 m/s 750 mmHg 93%
02:00 +9°C° 0 mm 2 m/s 750 mmHg 94%
03:00 +9°C° 0 mm 2 m/s 750 mmHg 94%
04:00 +9°C° 0 mm 2 m/s 750 mmHg 94%
05:00 +9°C° 0 mm 2 m/s 750 mmHg 93%
06:00 +9°C° 0 mm 2 m/s 750 mmHg 91%
07:00 +10°C° 0 mm 2 m/s 750 mmHg 90%
08:00 +12°C° 0 mm 2 m/s 750 mmHg 83%
09:00 +14°C° 0 mm 2 m/s 750 mmHg 75%
10:00 +15°C° 0 mm 2 m/s 750 mmHg 68%
11:00 +16°C° 0 mm 2 m/s 750 mmHg 64%
12:00 +17°C° 0 mm 2 m/s 749 mmHg 60%
13:00 +18°C° 0 mm 2 m/s 749 mmHg 56%
14:00 +17°C° 0 mm 2 m/s 749 mmHg 58%
15:00 +17°C° 0 mm 2 m/s 748 mmHg 60%
16:00 +17°C° 0 mm 2 m/s 748 mmHg 62%
17:00 +16°C° 0 mm 2 m/s 748 mmHg 66%
18:00 +14°C° 0 mm 2 m/s 748 mmHg 70%
19:00 +13°C° 0 mm 2 m/s 748 mmHg 74%
20:00 +12°C° 0 mm 2 m/s 748 mmHg 77%
21:00 +12°C° 0 mm 2 m/s 748 mmHg 80%
22:00 +10°C° 0 mm 2 m/s 748 mmHg 82%
23:00 +10°C° 0 mm 2 m/s 748 mmHg 84%
Arată mai mult